Location: Brede
(50.9167°N, 0.6000°E)
Time: 19:59:19
(UTC+00:00)

Vanguard 1 Rocket - Pass Details

Date: 05 December 2020
Orbit: 655 x 4221 km, 34.3° (Epoch: 17 January)

Event Time Altitude Azimuth Distance (km) Brightness Sun altitude
Exits shadow 03:22:24 45° 210° (SSW) 4,550 10.5 -40.0°
Maximum altitude 03:25:10 47° 194° (SSW) 4,339 10.4 -39.5°
Drops below altitude 10° 03:40:56 10° 128° (SE) 5,198 11.6 -37.1°
Sets 03:44:19 0° 122° (ESE) 5,807 12.1 -36.6°
